AE7VB Weather Reports


Display with metric or nautical units.
time (UTC)temp
F
wind
direction
speed
MPH
gust
MPH
rain 1hr
in
rain 24hr
in
rain mn
in
humidity
%
barometer
mb
20260508151545 58 355 1.0 4.0 0.00 0.00 0.00 56 1021.0
20260508150543 57 34 1.0 4.0 0.00 0.00 0.00 61 1021.2
20260508145543 57 62 1.0 3.0 0.00 0.00 0.00 62 1021.3
20260508144511 56 39 1.0 3.0 0.00 0.00 0.00 62 1021.2
20260508143509 54 58 1.0 3.0 0.00 0.00 0.00 64 1021.1
20260508142508 54 327 2.0 3.0 0.00 0.00 0.00 67 1020.7
20260508141507 53 272 1.0 4.0 0.00 0.00 0.00 65 1020.7
20260508140506 52 272 0.0 4.0 0.00 0.00 0.00 65 1020.6
20260508135434 51 261 2.0 3.0 0.00 0.00 0.00 70 1020.5
20260508134434 49 148 0.0 3.0 0.00 0.00 0.00 71 1020.4
20260508133432 48 149 1.0 3.0 0.00 0.00 0.00 71 1020.2
20260508132401 46 154 1.0 2.0 0.00 0.00 0.00 73 1019.7
20260508131400 45 153 1.0 2.0 0.00 0.00 0.00 74 1019.7
20260508130358 44 151 0.0 3.0 0.00 0.00 0.00 74 1019.6
20260508125357 44 152 0.0 3.0 0.00 0.00 0.00 74 1019.5
20260508124356 43 151 0.0 1.0 0.00 0.00 0.00 74 1019.5
20260508123355 43 151 1.0 1.0 0.00 0.00 0.00 75 1019.6
20260508122354 43 150 0.0 1.0 0.00 0.00 0.00 74 1019.7
20260508121352 44 151 0.0 2.0 0.00 0.00 0.00 73 1019.7
20260508120351 44 151 1.0 3.0 0.00 0.00 0.00 74 1019.8
20260508115350 45 151 1.0 5.0 0.00 0.00 0.00 75 1019.5
20260508114350 46 150 2.0 6.0 0.00 0.00 0.00 75 1020.0
20260508113349 46 149 2.0 5.0 0.00 0.00 0.00 75 1019.7
20260508112348 46 156 1.0 5.0 0.00 0.00 0.00 75 1019.8
20260508111316 46 151 2.0 5.0 0.00 0.00 0.00 75 1019.8
20260508110244 47 148 2.0 5.0 0.00 0.00 0.00 77 1019.9
20260508105243 47 155 2.0 5.0 0.00 0.00 0.00 79 1019.8
20260508104242 47 156 2.0 5.0 0.00 0.00 0.00 79 1019.9
20260508103240 47 155 1.0 5.0 0.00 0.00 0.00 79 1019.8
20260508102208 47 148 2.0 5.0 0.00 0.00 0.00 79 1019.9
20260508101207 47 154 2.0 5.0 0.00 0.00 0.00 79 1019.6
20260508100206 47 151 1.0 3.0 0.00 0.00 0.00 78 1019.5
20260508095205 47 154 0.0 0.0 0.00 0.00 0.00 78 1019.6
20260508094204 47 155 0.0 0.0 0.00 0.00 0.00 78 1020.0
20260508093132 48 154 0.0 0.0 0.00 0.00 0.00 77 1019.7
20260508092100 48 155 0.0 0.0 0.00 0.00 0.00 76 1019.7
20260508091059 49 153 0.0 0.0 0.00 0.00 0.00 76 1019.7
20260508090058 49 155 0.0 0.0 0.00 0.00 0.00 75 1019.8
20260508085057 49 154 0.0 0.0 0.00 0.00 0.00 75 1019.8
20260508084057 49 154 0.0 0.0 0.00 0.00 0.00 75 1019.8
20260508083056 49 154 0.0 0.0 0.00 0.00 0.00 75 1019.8
20260508082055 49 155 0.0 0.0 0.00 0.00 0.00 75 1019.8
20260508081054 50 154 0.0 0.0 0.00 0.00 0.00 75 1019.7
20260508075951 50 151 0.0 0.0 0.00 0.00 0.00 75 1019.8
20260508074950 50 151 0.0 0.0 0.00 0.00 0.00 75 1019.9
20260508073949 50 150 0.0 0.0 0.00 0.00 0.00 74 1019.8
20260508072948 51 151 0.0 0.0 0.00 0.00 0.00 74 1019.9
20260508071947 51 151 0.0 1.0 0.00 0.00 0.00 73 1019.9
20260508070914 51 151 0.0 1.0 0.00 0.00 0.00 73 1019.8
20260508065914 52 152 0.0 1.0 0.00 0.00 0.00 73 1019.4
20260508064913 52 151 0.0 5.0 0.00 0.00 0.00 73 1019.5
20260508063912 52 154 2.0 3.0 0.00 0.00 0.00 73 1019.4
20260508062911 52 156 2.0 2.0 0.00 0.00 0.00 73 1019.8
20260508061910 52 156 1.0 3.0 0.00 0.00 0.00 73 1019.5
20260508060909 52 160 2.0 4.0 0.00 0.00 0.00 73 1019.3
20260508055908 52 176 0.0 0.0 0.00 0.00 0.00 73 1019.3
20260508054907 52 179 0.0 0.0 0.00 0.00 0.00 73 1019.3
20260508053906 53 180 0.0 0.0 0.00 0.00 0.00 72 1019.6
20260508052834 53 169 0.0 1.0 0.00 0.00 0.00 71 1019.3
20260508051833 53 169 0.0 2.0 0.00 0.00 0.00 70 1019.5
20260508050831 54 169 0.0 4.0 0.00 0.00 0.00 71 1019.5
20260508045830 54 159 1.0 3.0 0.00 0.00 0.00 70 1019.1
20260508044829 54 158 0.0 3.0 0.00 0.00 0.00 70 1019.1
20260508043828 54 157 1.0 3.0 0.00 0.00 0.00 70 1019.2
20260508042827 55 157 1.0 3.0 0.00 0.00 0.00 69 1019.2
20260508041826 55 149 0.0 2.0 0.00 0.00 0.00 68 1019.1
20260508040826 56 149 1.0 3.0 0.00 0.00 0.00 67 1019.1
20260508035824 56 154 1.0 3.0 0.00 0.00 0.00 66 1019.2
20260508034823 57 156 1.0 3.0 0.00 0.00 0.00 65 1018.9
20260508033751 57 156 2.0 3.0 0.00 0.00 0.00 63 1018.9
20260508032749 59 148 0.0 2.0 0.00 0.00 0.00 61 1019.0
20260508031748 61 129 1.0 2.0 0.00 0.00 0.00 57 1018.9
20260508030747 62 24 0.0 3.0 0.00 0.00 0.00 54 1019.1
20260508025746 63 25 0.0 3.0 0.00 0.00 0.00 52 1019.2
20260508024713 64 24 2.0 4.0 0.00 0.00 0.00 50 1019.2
20260508023712 64 23 1.0 4.0 0.00 0.00 0.00 48 1019.2
20260508022639 65 19 1.0 4.0 0.00 0.00 0.00 47 1018.9
20260508021639 65 18 1.0 4.0 0.00 0.00 0.00 46 1018.9
20260508020637 65 21 1.0 3.0 0.00 0.00 0.00 46 1018.8
20260508015636 66 12 2.0 3.0 0.00 0.00 0.00 44 1018.8
20260508014635 66 25 1.0 4.0 0.00 0.00 0.00 42 1018.8
20260508013532 67 8 1.0 4.0 0.00 0.00 0.00 41 1018.8
20260508012531 67 11 2.0 8.0 0.00 0.00 0.00 41 1018.7
20260508011529 68 9 2.0 8.0 0.00 0.00 0.00 43 1018.6
20260508010529 68 8 2.0 4.0 0.00 0.00 0.00 44 1018.4
20260508005528 68 20 2.0 4.0 0.00 0.00 0.00 46 1018.3
20260508004527 69 346 1.0 4.0 0.00 0.00 0.00 46 1018.3
20260508003526 69 20 1.0 5.0 0.00 0.00 0.00 47 1018.3
20260508002525 70 7 2.0 5.0 0.00 0.00 0.00 44 1018.3
20260508001524 69 334 1.0 6.0 0.00 0.00 0.00 44 1017.9
20260508000523 69 19 2.0 7.0 0.00 0.00 0.00 45 1017.9
20260507235522 69 7 1.0 4.0 0.00 0.00 0.00 46 1017.9
20260507234521 70 3 1.0 4.0 0.00 0.00 0.00 41 1018.0
20260507233448 70 328 1.0 5.0 0.00 0.00 0.00 38 1018.1
20260507232448 70 352 1.0 10.0 0.00 0.00 0.00 38 1018.2
20260507231446 70 287 3.0 10.0 0.00 0.00 0.00 32 1018.2
20260507230445 70 264 4.0 9.0 0.00 0.00 0.00 31 1018.3
20260507225443 70 282 3.0 9.0 0.00 0.00 0.00 33 1018.7
20260507224442 70 287 3.0 11.0 0.00 0.00 0.00 33 1018.8
20260507223441 70 287 4.0 11.0 0.00 0.00 0.00 35 1018.9
20260507222439 70 275 1.0 9.0 0.00 0.00 0.00 34 1019.1
20260507221439 70 287 3.0 9.0 0.00 0.00 0.00 35 1019.1
20260507220437 70 289 2.0 9.0 0.00 0.00 0.00 34 1019.1
20260507215436 70 267 2.0 9.0 0.00 0.00 0.00 34 1019.5
20260507214435 71 295 1.0 9.0 0.00 0.00 0.00 34 1019.6
20260507213434 71 292 2.0 9.0 0.00 0.00 0.00 34 1019.7
20260507212432 70 300 1.0 7.0 0.00 0.00 0.00 38 1019.6
20260507211400 70 294 1.0 10.0 0.00 0.00 0.00 34 1020.0
20260507210359 70 256 2.0 10.0 0.00 0.00 0.00 36 1020.1
20260507205358 70 307 2.0 11.0 0.00 0.00 0.00 37 1020.2
20260507204356 70 299 1.0 9.0 0.00 0.00 0.00 39 1020.4
20260507203253 70 272 3.0 10.0 0.00 0.00 0.00 43 1020.5
20260507202252 69 274 3.0 10.0 0.00 0.00 0.00 38 1020.8
20260507201251 69 293 3.0 9.0 0.00 0.00 0.00 43 1020.9
20260507200148 69 287 3.0 9.0 0.00 0.00 0.00 40 1020.9
20260507195147 70 295 2.0 8.0 0.00 0.00 0.00 38 1020.9
20260507194115 68 280 2.0 7.0 0.00 0.00 0.00 43 1020.8
20260507193114 69 300 2.0 8.0 0.00 0.00 0.00 41 1020.8
20260507192113 68 278 4.0 8.0 0.00 0.00 0.00 41 1020.8
20260507191040 68 282 2.0 8.0 0.00 0.00 0.00 42 1020.8
20260507190039 67 266 3.0 8.0 0.00 0.00 0.00 43 1020.7
20260507185038 67 282 3.0 8.0 0.00 0.00 0.00 44 1020.8
20260507184037 66 265 3.0 8.0 0.00 0.00 0.00 47 1020.8
20260507183036 66 267 1.0 5.0 0.00 0.00 0.00 43 1020.8
20260507182035 67 280 1.0 6.0 0.00 0.00 0.00 45 1021.2
20260507181034 65 244 2.0 6.0 0.00 0.00 0.00 47 1021.0
20260507180033 65 262 3.0 9.0 0.00 0.00 0.00 47 1020.7
20260507175032 65 253 4.0 9.0 0.00 0.00 0.00 47 1020.9
20260507174031 65 15 1.0 3.0 0.00 0.00 0.00 47 1020.9
20260507173030 64 40 1.0 4.0 0.00 0.00 0.00 48 1020.8
20260507172029 63 11 2.0 4.0 0.00 0.00 0.00 50 1020.8
20260507171028 62 25 2.0 3.0 0.00 0.00 0.00 53 1021.0
20260507170027 61 26 2.0 3.0 0.00 0.00 0.00 56 1020.6
20260507165026 61 26 1.0 4.0 0.00 0.00 0.00 57 1020.4
20260507164025 61 5 0.0 4.0 0.00 0.00 0.00 53 1020.5
20260507162952 61 359 1.0 4.0 0.00 0.00 0.00 55 1020.4
20260507161952 60 18 2.0 3.0 0.00 0.00 0.00 55 1020.4
20260507160951 60 24 1.0 3.0 0.00 0.00 0.00 59 1020.4
20260507155949 60 44 1.0 4.0 0.00 0.00 0.00 60 1020.4
20260507154948 60 293 2.0 5.0 0.00 0.00 0.00 51 1020.3
20260507153947 59 288 3.0 7.0 0.00 0.00 0.00 56 1020.7
20260507152947 59 266 2.0 7.0 0.00 0.00 0.00 57 1020.7
20260507151914 59 264 3.0 5.0 0.00 0.00 0.00 57 1020.8